Weather History for Wichita, KS

Change the Weather History Date:

Monday, March 18, 2013

  Actual Average Record
Temperature  
Mean Temperature 49 °F 47 °F  
Max Temperature 59 °F 59 °F 83 °F (1921)
Min Temperature 38 °F 36 °F 2 °F (1923)
Degree Days  
Heating Degree Days 16 18  
Month to date heating degree days 397 370  
Since 1 July heating degree days 3668 4010  
Cooling Degree Days 0 0  
Month to date cooling degree days 0 0  
Year to date cooling degree days 0 0  
Moisture  
Dew Point 29 °F    
Average Humidity 60    
Maximum Humidity 100    
Minimum Humidity 19    
Precipitation  
Precipitation T in 0.09 in 1.44 in (1984)
Month to date precipitation 0.83 1.44  
Year to date precipitation 3.85 3.45  
Snow  
Snow 0.00 in 0.10 in 3.40 in (1961)
Month to date snowfall 0.0 1.5  
Since 1 July snowfall 24.5 13.9  
Snow Depth 0.00 in    
Sea Level Pressure  
Sea Level Pressure 29.93 in    
Wind  
Wind Speed 10 mph (NNW)    
Max Wind Speed 22 mph    
Max Gust Speed 26 mph    
Visibility 9 miles    
Events      
T = Trace of Precipitation, MM = Missing Value Source: NWS Daily Summary

Daily Weather History Graph

Daily Weather History Graph

Search for Another Location

Airport:

Trip Planner

Search our weather history database for the weather conditions in past years. The results will help you decide how hot, cold, wet, or windy it might be!

Date:

Astronomy

Mar. 18, 2013 Rise Set
Actual Time 7:35 AM CDT 7:40 PM CDT
Civil Twilight 7:09 AM CDT 8:06 PM CDT
Nautical Twilight 6:39 AM CDT 8:36 PM CDT
Astronomical Twilight 6:08 AM CDT 9:07 PM CDT
Moon 11:42 AM CDT (3/18) 1:34 AM CDT (3/18)
Length of Visible Light 12h 56m
Length of Day
12h 04m
Waxing Crescent, 41% of the Moon is Illuminated
Mar 18
Waxing Crescent
Mar 19
First Quarter
Mar 27
Full
Apr 2
Last Quarter
Apr 10
New

Hourly Weather History & Observations

Time (CDT) Temp. Windchill Dew Point Humidity Pressure Visibility Wind Dir Wind Speed Gust Speed Precip Events Conditions
12:53 AM 37.9 °F 35.5 °F 36.0 °F 93% 29.79 in 8.0 mi NNW 3.5 mph - N/A   Overcast
1:53 AM 37.9 °F 33.5 °F 37.0 °F 97% 29.79 in 8.0 mi NNE 5.8 mph - N/A   Overcast
2:53 AM 37.9 °F 33.5 °F 37.0 °F 97% 29.80 in 7.0 mi North 5.8 mph - N/A   Overcast
3:53 AM 37.9 °F 31.5 °F 37.0 °F 97% 29.81 in 7.0 mi NNW 9.2 mph - 0.00 in   Overcast
4:53 AM 37.9 °F 32.7 °F 37.0 °F 97% 29.83 in 7.0 mi NW 6.9 mph - N/A   Overcast
5:53 AM 39.0 °F 32.3 °F 37.0 °F 93% 29.85 in 6.0 mi NNW 10.4 mph - N/A   Overcast
6:53 AM 39.9 °F 32.5 °F 37.9 °F 93% 29.89 in 8.0 mi NNW 12.7 mph - N/A   Overcast
7:23 AM 39.2 °F 32.0 °F 37.4 °F 93% 29.88 in 10.0 mi NNW 11.5 mph - N/A   Partly Cloudy
7:48 AM 37.4 °F 30.3 °F 35.6 °F 93% 29.90 in 8.0 mi NNW 10.4 mph - N/A   Scattered Clouds
7:53 AM 39.0 °F 32.3 °F 37.0 °F 93% 29.93 in 8.0 mi NW 10.4 mph - N/A   Scattered Clouds
8:53 AM 41.0 °F 33.9 °F 37.0 °F 86% 29.94 in 10.0 mi NNW 12.7 mph - N/A   Partly Cloudy
9:53 AM 44.1 °F 37.7 °F 33.1 °F 65% 29.97 in 10.0 mi North 12.7 mph 23.0 mph N/A   Scattered Clouds
10:53 AM 48.0 °F - 28.9 °F 48% 29.98 in 10.0 mi North 18.4 mph 21.9 mph N/A   Scattered Clouds
11:53 AM 51.1 °F - 26.1 °F 38% 29.99 in 10.0 mi North 15.0 mph - N/A   Scattered Clouds
12:53 PM 54.0 °F - 24.1 °F 31% 29.99 in 10.0 mi North 11.5 mph - N/A   Scattered Clouds
1:53 PM 55.9 °F - 21.9 °F 27% 29.99 in 10.0 mi NW 13.8 mph 24.2 mph N/A   Scattered Clouds
2:53 PM 57.0 °F - 23.0 °F 27% 29.97 in 10.0 mi NNW 16.1 mph 21.9 mph N/A   Mostly Cloudy
3:53 PM 57.0 °F - 21.9 °F 26% 29.97 in 10.0 mi NNW 12.7 mph 20.7 mph N/A   Scattered Clouds
4:53 PM 57.9 °F - 23.0 °F 26% 29.97 in 10.0 mi NW 11.5 mph 21.9 mph N/A   Scattered Clouds
5:53 PM 57.9 °F - 16.0 °F 19% 29.96 in 10.0 mi WNW 10.4 mph - N/A   Scattered Clouds
6:53 PM 55.9 °F - 18.0 °F 23% 29.97 in 10.0 mi NW 8.1 mph - N/A   Partly Cloudy
7:53 PM 51.1 °F - 17.1 °F 26% 29.98 in 10.0 mi North 3.5 mph - N/A   Partly Cloudy
8:53 PM 45.0 °F - 21.0 °F 39% 30.00 in 10.0 mi Calm Calm - N/A   Clear
9:53 PM 44.1 °F 39.5 °F 21.9 °F 42% 30.04 in 10.0 mi NE 8.1 mph - N/A   Clear
10:53 PM 44.1 °F 40.1 °F 21.9 °F 42% 30.05 in 10.0 mi ENE 6.9 mph - N/A   Clear
11:53 PM 42.1 °F 37.1 °F 21.9 °F 45% 30.04 in 10.0 mi East 8.1 mph - N/A   Clear